Home   Weather   Viernheim   Past weeks

Flag for Germany Past Weather in Viernheim, Hesse, Germany — Yesterday and Last 2 Weeks

Now
50 °F

Overcast.


Feels Like: 43 °F
Forecast: 39 / 46 °F
Wind: 21 mph from Southwest

Location: Frankfurt-M-Flughafen Airport

Current Time: Feb 23, 2017 at 6:05:23 am

Latest Report: Feb 23, 2017 at 5:20 am


Visibility: N/A

Pressure: 29.74 "Hg

Humidity: 76%

Dew Point: 43 °F

Location of ViernheimLocation

Past Weather in Viernheim — Graph

°F

Viernheim Temperature Yesterday

Maximum temperature yesterday: 54 °F (at 12:20 pm)
Minimum temperature yesterday: 50 °F (at 12:20 am)
Average temperature yesterday: 51 °F

High & Low Weather Summary for the Past Weeks

 TemperatureHumidityPressure
High54 °F (Feb 16, 2:20 pm)100% (Feb 16, 3:50 am)30.60 "Hg (Feb 16, 3:50 am)
Low25 °F (Feb 15, 6:20 am)40% (Feb 14, 3:20 pm)29.74 "Hg (Feb 23, 3:50 am)
Average40 °F77%30.23 "Hg
* Reported Feb 8 4:20 am — Feb 23 4:50 am, Viernheim, Weather by CustomWeather, © 2017

Note: Actual official high and low records may vary slightly from our data, if they occured in-between our weather recording intervals... More about our weather records

Advertising

Viernheim Weather History for the Previous 24 Hours

Scroll right to see more
 ConditionsComfort  
Time TempWeatherWind HumidityBarometerVisibility
4:50 am
Thu, Feb 23
50 °FOvercast.22 mph76%29.74 "HgN/A
4:20 am50 °FLight rain. Overcast.20 mph82%29.74 "HgN/A
3:50 am50 °FOvercast.21 mph76%29.74 "HgN/A
3:20 am50 °FOvercast.21 mph76%29.77 "HgN/A
2:50 am50 °FLight rain. Overcast.18 mph76%29.77 "HgN/A
2:20 am50 °FOvercast.21 mph76%29.77 "HgN/A
1:50 am50 °FOvercast.21 mph76%29.77 "HgN/A
1:20 am50 °FOvercast.20 mph76%29.77 "HgN/A
12:50 am50 °FOvercast.21 mph76%29.80 "HgN/A
12:20 am50 °FLight rain. Overcast.21 mph82%29.80 "HgN/A
11:50 pm
Wed, Feb 22
50 °FLight rain. Overcast.21 mph82%29.80 "HgN/A
11:20 pm50 °FLight rain. Overcast.22 mph82%29.80 "HgN/A
10:50 pm50 °FOvercast.22 mph82%29.80 "HgN/A
10:20 pm50 °FOvercast.23 mph82%29.80 "HgN/A
9:50 pm50 °FOvercast.23 mph82%29.80 "HgN/A
9:20 pm50 °FLight rain. Overcast.23 mph82%29.80 "HgN/A
8:50 pm50 °FOvercast.22 mph82%29.80 "HgN/A
8:20 pm50 °FLight rain. Overcast.25 mph82%29.80 "HgN/A
7:50 pm50 °FLight rain. Overcast.23 mph82%29.77 "HgN/A
7:20 pm52 °FLight rain. Overcast.23 mph77%29.77 "HgN/A
6:50 pm52 °FOvercast.25 mph77%29.77 "HgN/A
6:20 pm52 °FOvercast.24 mph77%29.77 "HgN/A
5:50 pm52 °FPartly sunny.24 mph77%29.77 "HgN/A
5:20 pm52 °FPartly sunny.25 mph77%29.77 "HgN/A
4:50 pm52 °FPartly sunny.24 mph72%29.77 "HgN/A
4:20 pm52 °FPartly sunny.20 mph72%29.80 "HgN/A
3:50 pm52 °FPartly sunny.22 mph72%29.80 "HgN/A
3:20 pm52 °FPartly sunny.23 mph72%29.80 "HgN/A
2:50 pm52 °FPartly sunny.24 mph77%29.80 "HgN/A
2:20 pm54 °FOvercast.28 mph67%29.83 "HgN/A
1:50 pm54 °FPartly sunny.23 mph67%29.83 "HgN/A
1:20 pm54 °FPartly sunny.26 mph67%29.83 "HgN/A
12:50 pm54 °FPartly sunny.24 mph72%29.83 "HgN/A
12:20 pm54 °FPartly sunny.26 mph67%29.83 "HgN/A
11:50 am52 °FPartly sunny.24 mph77%29.83 "HgN/A
11:20 am52 °FLight rain. Partly sunny.25 mph77%29.83 "HgN/A
10:50 am52 °FLight rain. Partly sunny.23 mph77%29.86 "HgN/A
10:20 am52 °FLight rain. Partly sunny.18 mph77%29.86 "HgN/A
9:50 am52 °FLight rain. Broken clouds.17 mph77%29.83 "HgN/A
9:20 am50 °FLight rain. Broken clouds.17 mph88%29.83 "HgN/A
8:50 am52 °FPartly sunny.17 mph77%29.86 "HgN/A
8:20 am52 °FPartly sunny.17 mph82%29.86 "HgN/A
7:50 am50 °FDrizzle. Broken clouds.16 mph88%29.86 "HgN/A
7:20 am52 °FLight rain. Partly cloudy.18 mph82%29.86 "HgN/A
6:50 am52 °FLight rain. Passing clouds.15 mph82%29.86 "HgN/A
6:20 am52 °FLight rain. Passing clouds.18 mph88%29.86 "HgN/A
Weather by CustomWeather, © 2017

See weather overviewHow to use our weather pages